Terug naar catalogus

GONETS M 06

ActiefCommunicatiePO
NORAD 39250·PAYLOAD·🇷🇺 Russia

Gelanceerd Sep 11, 2013 vanaf Plesetsk Cosmodrome

Loading…

Volgende Passages (komende 24 uur)

TLE

VersSource: Space-Track

Epoch: Sep 14, 2026, 14:03 UTC

1 39250U 13048B   26257.58605527  .00000097  00000-0  62425-3 0  9993
2 39250  82.4814 288.5568 0020021  54.0120 306.2812 12.43033396590052

Volg GONETS M 06 in realtime met AllMySat

Download on the App Store